Datum,Zeit,Temp. I.,Temp.,Temp. Sonne,Windchill X,Diff Temp.,Feuchte I.,Feuchte,Luftdruck,Regen,Wind,Richtung,Windb�en,W0
,,�C,�C,�C,�C,�C,%,%,hPa,mm,km/h,�,km/h,B0
#Calibrate=1.000 #Regen0=0mm #Location=365/365m #Baro_correction=43hPa #Station=Nexus
,,1,2,7,8,10,17,18,133,34,35,36,45,97
01.11.2019,00:00,20.7,6.0,5.7,5.1,0.0,52,78,1008.8,0.000,0.5,315,0.0,2
01.11.2019,00:01,20.7,6.0,5.7,5.1,0.0,52,78,1008.8,0.000,0.5,315,0.0,2
01.11.2019,00:10,20.7,6.1,5.8,5.1,0.0,52,78,1008.8,0.000,0.0,270,0.0,2
01.11.2019,00:20,20.6,6.1,5.8,5.1,0.0,52,78,1008.8,0.000,0.2,135,1.9,2
01.11.2019,00:30,20.6,6.2,5.8,5.1,0.0,52,78,1008.3,0.000,0.3,247,0.0,2
01.11.2019,00:40,20.5,6.2,5.9,5.2,0.0,52,78,1008.3,0.000,0.0,292,2.4,2
01.11.2019,00:50,20.4,6.2,5.9,5.2,0.0,52,78,1008.4,0.000,0.0,315,0.0,2
01.11.2019,01:00,20.4,6.2,5.9,5.2,0.0,52,78,1008.4,0.000,0.0,270,0.0,2
01.11.2019,01:10,20.2,6.3,5.9,5.2,0.0,52,78,1008.1,0.000,0.0,22,0.0,2
01.11.2019,01:20,20.2,6.2,5.9,5.2,0.0,52,78,1008.1,0.000,0.0,337,0.0,2
01.11.2019,01:30,20.2,6.3,6.0,5.3,0.0,52,78,1007.6,0.000,0.2,67,0.0,2
01.11.2019,01:40,20.2,6.3,6.0,5.3,0.0,52,78,1007.6,0.000,0.0,135,3.5,2
01.11.2019,01:50,20.2,6.3,6.0,5.3,0.0,52,78,1007.8,0.000,0.0,112,0.0,2
01.11.2019,02:00,20.2,6.4,6.0,5.3,0.0,52,78,1007.8,0.000,0.0,112,0.0,2
01.11.2019,02:10,20.1,6.4,6.1,5.4,0.0,52,78,1007.8,0.000,0.3,157,2.4,2
01.11.2019,02:20,20.1,6.4,6.1,5.4,0.0,52,78,1007.8,0.000,0.3,112,0.0,2
01.11.2019,02:30,20.0,6.4,6.1,5.5,0.0,52,78,1007.3,0.000,1.0,135,0.0,2
01.11.2019,02:40,20.0,6.4,6.1,5.5,0.0,52,78,1007.3,0.000,0.2,135,5.1,2
01.11.2019,02:50,20.0,6.5,6.2,5.5,0.0,52,78,1006.9,0.000,0.0,135,0.0,3
01.11.2019,03:00,20.0,6.5,6.2,5.5,0.0,52,78,1006.9,0.000,0.5,67,2.3,3
01.11.2019,03:10,20.0,6.4,6.1,5.5,0.0,53,78,1006.4,0.000,0.6,90,5.5,3
01.11.2019,03:20,20.0,6.5,6.2,5.5,0.0,53,78,1006.4,0.000,0.5,112,0.0,3
01.11.2019,03:30,19.9,6.5,6.2,5.5,0.0,53,78,1006.6,0.000,0.5,202,0.0,3
01.11.2019,03:40,19.9,6.5,6.2,5.5,0.0,53,78,1006.6,0.000,0.3,247,0.0,3
01.11.2019,03:50,19.9,6.5,6.1,5.4,0.0,53,78,1006.2,0.000,0.6,90,4.0,3
01.11.2019,04:00,19.8,6.4,6.1,5.4,0.0,53,78,1006.2,0.000,2.3,202,4.3,3
01.11.2019,04:10,19.8,6.4,6.1,5.4,0.0,53,78,1006.1,0.000,2.1,135,6.4,3
01.11.2019,04:20,19.8,6.5,6.1,5.4,0.0,53,78,1006.1,0.000,1.1,112,3.1,3
01.11.2019,04:30,19.8,6.4,6.0,5.3,0.0,53,78,1005.9,0.000,0.8,112,0.0,3
01.11.2019,04:40,19.8,6.4,6.0,5.3,0.0,53,78,1005.9,0.000,1.0,180,2.6,3
01.11.2019,04:50,19.8,6.4,6.0,5.3,0.0,53,78,1005.8,0.000,1.4,135,4.3,3
01.11.2019,05:00,19.8,6.4,6.0,5.3,0.0,53,78,1005.8,0.000,1.1,90,6.8,3
01.11.2019,05:10,19.7,6.4,6.1,5.4,0.0,53,78,1005.6,0.000,2.6,135,3.4,3
01.11.2019,05:20,19.7,6.4,6.1,5.4,0.0,53,78,1005.6,0.000,1.9,180,7.1,3
01.11.2019,05:30,19.7,6.4,6.1,5.4,0.0,53,79,1005.3,0.000,1.3,157,7.6,3
01.11.2019,05:40,19.7,6.4,6.0,5.3,0.0,53,79,1005.3,0.000,0.8,112,0.0,3
01.11.2019,05:50,19.7,6.4,6.0,5.3,0.0,53,79,1005.1,0.000,0.3,90,2.3,3
01.11.2019,06:00,19.7,6.4,6.1,5.4,0.0,53,79,1005.1,0.000,0.8,112,0.0,3
01.11.2019,06:10,19.6,6.4,6.0,5.2,0.0,53,79,1004.6,0.000,0.6,247,0.0,9
01.11.2019,06:20,19.6,6.4,6.0,5.2,0.0,53,79,1004.6,0.000,1.0,157,0.0,9
01.11.2019,06:30,19.6,6.4,6.0,5.1,0.0,53,79,1004.5,0.000,0.2,90,2.6,9
01.11.2019,06:40,19.6,6.3,5.9,5.0,0.0,53,78,1004.5,0.000,1.4,135,1.9,9
01.11.2019,06:50,19.6,6.1,5.7,5.0,0.0,53,78,1004.4,0.000,0.5,45,0.0,9
01.11.2019,07:00,19.6,6.2,5.8,5.0,0.0,53,78,1004.4,0.000,0.2,67,0.0,9
01.11.2019,07:10,19.6,6.3,5.9,5.1,0.0,53,78,1004.2,0.000,0.0,337,0.0,9
01.11.2019,07:20,19.6,6.3,5.9,5.2,0.0,53,78,1004.2,0.000,0.2,270,1.9,9
01.11.2019,07:30,19.6,6.3,5.9,5.2,0.0,53,78,1004.1,0.000,0.2,292,0.0,9
01.11.2019,07:40,19.6,6.5,6.2,5.5,0.0,53,79,1004.1,0.000,0.2,135,2.3,9
01.11.2019,07:50,19.6,6.7,6.4,5.9,0.0,53,79,1003.8,0.000,0.2,90,0.0,9
01.11.2019,08:00,19.5,7.0,6.8,6.3,0.0,53,78,1003.8,0.000,0.0,270,0.0,9
01.11.2019,08:10,19.5,7.2,7.0,6.6,0.0,53,78,1003.9,0.000,0.0,247,0.0,9
01.11.2019,08:20,19.5,7.5,7.3,7.0,0.0,53,78,1003.9,0.000,0.0,112,0.0,9
01.11.2019,08:30,19.5,7.6,7.5,7.3,0.0,53,78,1003.8,0.000,0.5,22,0.0,9
01.11.2019,08:40,19.5,7.7,7.6,7.4,0.0,53,77,1003.8,0.000,0.6,112,2.3,9
01.11.2019,08:50,19.5,7.9,7.7,7.4,0.0,53,77,1003.7,0.000,0.3,292,0.0,9
01.11.2019,09:00,19.5,7.9,7.7,7.4,0.0,53,77,1003.7,0.000,0.0,315,0.0,9
01.11.2019,09:10,19.4,8.0,7.8,7.4,0.0,53,77,1003.3,0.000,0.0,270,0.0,9
01.11.2019,09:20,19.4,8.2,8.0,7.7,0.0,53,77,1003.3,0.000,0.0,292,0.0,9
01.11.2019,09:30,19.4,8.4,8.2,7.9,0.0,53,77,1003.2,0.000,0.0,292,0.0,9
01.11.2019,09:40,19.4,8.7,8.5,8.0,0.0,53,77,1003.2,0.000,0.2,292,0.0,9
01.11.2019,09:50,19.4,8.8,8.6,8.2,0.0,53,77,1003.2,0.000,0.0,135,0.0,9
01.11.2019,10:00,19.5,9.2,9.0,8.5,0.0,53,77,1003.2,0.000,0.0,67,0.0,9
01.11.2019,10:10,19.6,9.3,9.3,9.3,0.0,53,77,1003.0,0.000,0.0,90,0.0,9
01.11.2019,10:20,19.6,9.6,9.5,9.4,0.0,53,76,1003.0,0.000,0.0,360,0.0,9
01.11.2019,10:30,19.6,9.9,9.9,9.8,0.0,53,76,1002.8,0.000,1.0,112,3.1,9
01.11.2019,10:40,19.7,10.2,10.5,10.5,0.0,53,75,1002.8,0.000,0.3,247,0.0,9
01.11.2019,10:50,19.8,10.5,10.9,10.9,0.0,53,75,1002.3,0.000,0.0,292,0.0,9
01.11.2019,11:00,19.8,11.0,11.3,11.3,0.0,53,75,1002.3,0.000,0.0,360,0.0,9
01.11.2019,11:10,19.8,11.4,12.0,12.0,0.0,53,74,1002.2,0.000,1.3,225,0.0,9
01.11.2019,11:20,19.8,11.9,13.2,13.2,0.0,53,73,1002.2,0.000,0.2,112,0.0,9
01.11.2019,11:30,19.9,12.3,13.5,13.5,0.0,53,73,1002.2,0.000,0.0,45,0.0,9
01.11.2019,11:40,19.9,12.7,14.1,14.1,0.0,53,72,1002.2,0.000,0.0,337,0.0,9
01.11.2019,11:50,19.9,13.0,14.8,14.8,0.0,52,71,1002.1,0.000,0.8,45,3.1,9
01.11.2019,12:00,19.9,13.3,15.0,15.0,0.0,52,71,1002.1,0.000,1.1,135,6.1,9
01.11.2019,12:10,20.0,13.7,15.7,15.7,0.0,53,71,1001.9,0.000,1.3,292,5.5,9
01.11.2019,12:20,20.0,14.0,15.2,15.2,0.0,53,70,1001.9,0.000,1.0,360,0.0,9
01.11.2019,12:30,20.0,14.3,15.8,15.8,0.0,53,69,1000.9,0.000,0.3,112,2.3,9
01.11.2019,12:40,20.0,14.6,15.8,15.8,0.0,53,69,1000.9,0.000,1.0,112,2.9,9
01.11.2019,12:50,19.9,14.9,15.7,15.7,0.0,53,69,1001.0,0.000,0.6,112,0.0,9
01.11.2019,13:00,20.0,14.9,15.6,15.6,0.0,54,68,1001.0,0.000,0.6,360,0.0,9
01.11.2019,13:10,19.9,14.8,15.1,15.1,0.0,54,68,1000.0,0.000,0.8,90,1.9,9
01.11.2019,13:20,19.9,14.4,14.6,14.6,0.0,54,68,1000.0,0.000,1.4,67,0.0,9
01.11.2019,13:30,19.8,14.2,14.1,13.9,0.0,54,68,999.4,0.000,0.2,315,0.0,9
01.11.2019,13:40,19.8,14.1,13.9,13.5,0.0,55,69,999.4,0.000,0.0,22,0.0,9
01.11.2019,13:50,19.8,14.1,13.9,13.4,0.0,55,70,999.1,0.000,1.0,67,0.0,9
01.11.2019,14:00,19.8,13.8,13.6,13.3,0.0,55,71,999.1,0.000,0.5,67,0.0,9
01.11.2019,14:10,19.8,13.6,13.4,12.9,0.0,55,71,999.1,0.000,0.5,337,0.0,9
01.11.2019,14:20,19.8,13.4,13.1,12.5,0.0,55,72,999.1,0.000,0.2,270,0.0,9
01.11.2019,14:30,19.8,13.2,12.9,12.2,0.0,55,72,998.8,0.000,0.0,315,0.0,9
01.11.2019,14:40,19.8,13.0,12.7,12.1,0.0,55,73,998.8,0.000,0.6,292,0.0,9
01.11.2019,14:50,19.8,13.0,12.7,12.1,0.0,55,73,998.4,0.000,0.5,45,0.0,9
01.11.2019,15:00,19.8,12.8,12.6,12.1,0.0,55,73,998.4,0.000,0.0,247,0.0,9
01.11.2019,15:10,19.7,12.7,12.4,11.7,0.0,55,73,998.1,0.000,0.5,67,0.0,9
01.11.2019,15:20,19.8,12.6,12.0,10.9,0.0,55,74,998.1,0.000,0.0,45,0.0,9
01.11.2019,15:30,19.8,12.4,11.8,10.6,0.0,55,75,997.9,0.000,0.0,315,0.0,9
01.11.2019,15:40,19.7,12.4,11.8,10.5,0.0,55,75,997.9,0.000,0.8,315,0.0,9
01.11.2019,15:50,19.8,12.3,11.7,10.4,0.0,55,76,998.2,0.687,0.2,315,2.1,9
01.11.2019,16:00,19.8,12.1,11.5,10.4,0.0,55,77,998.2,0.000,0.6,270,1.8,9
01.11.2019,16:10,19.8,12.0,11.4,10.3,0.0,55,77,997.9,0.000,0.3,337,0.0,9
01.11.2019,16:20,19.7,11.8,11.3,10.2,0.0,55,76,997.9,0.000,0.0,247,0.0,9
01.11.2019,16:30,19.7,11.7,11.2,10.2,0.0,55,77,997.4,0.000,0.0,315,0.0,9
01.11.2019,16:40,19.7,11.6,11.1,10.1,0.0,55,77,997.4,0.000,0.0,292,0.0,9
01.11.2019,16:50,19.7,11.5,11.0,10.1,0.0,55,78,997.2,0.000,0.0,315,0.0,9
01.11.2019,17:00,19.7,11.4,10.9,10.0,0.0,54,78,997.2,0.687,0.0,315,0.0,9
01.11.2019,17:10,19.7,11.2,10.8,10.0,0.0,54,78,996.9,0.000,0.0,112,0.0,9
01.11.2019,17:20,19.7,11.1,10.7,9.9,0.0,54,78,996.9,0.000,0.0,270,0.0,9
01.11.2019,17:30,19.7,11.1,10.7,9.9,0.0,54,78,996.7,0.000,0.0,315,0.0,9
01.11.2019,17:40,19.7,11.1,10.7,9.8,0.0,54,78,996.7,0.000,0.0,270,0.0,9
01.11.2019,17:50,19.7,11.0,10.6,9.8,0.0,54,78,996.7,0.000,0.0,135,0.0,9
01.11.2019,18:00,19.7,10.9,10.5,9.6,0.0,54,78,996.7,0.000,0.0,67,0.0,9
01.11.2019,18:10,19.7,10.8,10.4,9.6,0.0,54,78,996.4,0.000,0.0,315,0.0,9
01.11.2019,18:20,19.7,10.7,10.3,9.5,0.0,54,78,996.4,0.000,0.0,247,0.0,9
01.11.2019,18:30,19.7,10.7,10.3,9.5,0.0,54,78,996.1,0.000,0.0,247,0.0,9
01.11.2019,18:40,19.7,10.6,10.2,9.4,0.0,54,78,996.1,0.000,0.0,157,0.0,9
01.11.2019,18:50,19.7,10.6,10.2,9.4,0.0,54,78,995.9,0.000,0.0,247,0.0,9
01.11.2019,19:00,19.6,10.6,10.3,9.6,0.0,54,78,995.9,0.000,0.0,112,0.0,9
01.11.2019,19:10,19.7,10.6,10.3,9.6,0.0,54,78,995.4,0.000,0.3,225,0.0,9
01.11.2019,19:20,19.7,10.6,10.3,9.6,0.0,54,78,995.4,0.000,0.0,135,0.0,9
01.11.2019,19:30,19.7,10.7,10.4,9.7,0.0,54,78,995.2,0.000,0.3,270,0.0,4
01.11.2019,19:40,19.7,10.7,10.4,9.8,0.0,54,78,995.2,0.000,0.2,360,0.0,4
01.11.2019,19:50,19.7,10.8,10.5,9.8,0.0,54,78,994.7,0.000,0.6,315,1.6,4
01.11.2019,20:00,19.7,10.9,10.6,9.9,0.0,54,78,994.7,0.000,0.3,360,0.0,4
01.11.2019,20:10,19.7,11.0,10.7,10.1,0.0,54,78,994.4,0.000,0.8,225,0.0,4
01.11.2019,20:20,19.7,11.1,10.9,10.5,0.0,54,78,994.4,0.000,1.9,315,0.0,4
01.11.2019,20:30,19.7,11.2,11.1,10.8,0.0,54,78,994.2,0.000,1.3,157,5.1,4
01.11.2019,20:40,19.6,11.3,11.1,10.7,0.0,54,78,994.2,0.000,1.4,337,0.0,4
01.11.2019,20:50,19.7,11.3,11.0,10.5,0.0,54,78,994.1,0.000,1.1,315,1.8,4
01.11.2019,21:00,19.7,11.2,10.9,10.4,0.0,54,78,994.1,0.000,0.5,247,1.8,4
01.11.2019,21:10,19.6,11.3,11.0,10.4,0.0,54,78,993.9,0.000,1.0,292,0.0,4
01.11.2019,21:20,19.7,11.3,11.0,10.5,0.0,54,78,993.9,0.000,0.5,225,2.9,4
01.11.2019,21:30,19.7,11.4,11.2,10.7,0.0,54,78,993.5,0.000,1.0,247,0.0,4
01.11.2019,21:40,19.7,11.4,11.2,10.9,0.0,54,78,993.5,0.000,1.4,135,0.0,4
01.11.2019,21:50,19.7,11.5,11.3,11.0,0.0,54,78,993.1,0.000,1.4,270,9.7,4
01.11.2019,22:00,19.7,11.5,11.4,11.1,0.0,54,78,993.1,0.000,1.6,270,3.4,4
01.11.2019,22:10,19.7,11.5,11.4,11.3,0.0,54,78,992.9,0.000,1.9,315,2.6,4
01.11.2019,22:20,19.7,11.5,11.4,11.1,0.0,54,78,992.9,0.000,2.1,315,2.7,4
01.11.2019,22:30,19.7,11.5,11.4,11.1,0.0,54,78,992.8,0.000,1.9,337,2.7,4
01.11.2019,22:40,19.7,11.5,11.4,11.2,0.0,54,78,992.8,0.000,1.0,315,2.9,4
01.11.2019,22:50,19.7,11.6,11.6,11.5,0.0,54,78,992.4,0.000,2.3,292,3.5,4
01.11.2019,23:00,19.7,11.7,11.6,11.5,0.0,54,78,992.4,0.000,1.6,315,2.6,4
01.11.2019,23:10,19.7,11.7,11.6,11.4,0.0,54,78,992.1,0.000,1.8,315,1.9,4
01.11.2019,23:20,19.7,11.8,11.7,11.5,0.0,54,78,992.1,0.000,1.8,270,2.1,4
01.11.2019,23:30,19.7,11.8,11.7,11.5,0.0,54,78,991.9,0.000,1.3,270,1.8,4
01.11.2019,23:40,19.7,11.9,11.8,11.7,0.0,54,78,991.9,0.000,1.3,270,2.4,4
01.11.2019,23:50,19.7,11.9,11.9,11.9,0.0,54,78,991.6,0.000,1.3,337,0.0,4
02.11.2019,00:00,19.7,12.1,12.0,11.8,0.0,54,78,991.6,0.687,1.3,360,0.0,4
02.11.2019,00:01,19.7,12.1,12.0,11.8,0.0,54,78,991.6,0.000,1.3,360,0.0,4
02.11.2019,00:10,19.7,12.0,11.8,11.3,0.0,54,78,991.5,0.000,1.4,315,1.9,4
02.11.2019,00:20,19.7,11.9,11.6,11.0,0.0,54,78,991.5,0.000,0.6,315,0.0,4
02.11.2019,00:30,19.7,11.9,11.6,10.9,0.0,54,78,991.3,0.687,0.3,225,0.0,4
02.11.2019,00:40,19.7,11.8,11.5,10.9,0.0,54,78,991.3,0.000,0.0,270,0.0,4
02.11.2019,00:50,19.6,11.7,11.4,10.9,0.0,54,78,991.1,0.000,0.0,292,0.0,4
02.11.2019,01:00,19.7,11.7,11.4,10.9,0.0,53,78,991.1,0.000,0.2,292,0.0,4
02.11.2019,01:10,19.7,11.6,11.4,10.9,0.0,53,78,991.1,0.000,0.0,270,0.0,4
02.11.2019,01:20,19.7,11.5,11.3,10.9,0.0,54,78,991.1,0.000,0.0,112,0.0,4
02.11.2019,01:30,19.7,11.5,11.2,10.7,0.0,53,78,990.8,0.000,0.0,292,0.0,4
02.11.2019,01:40,19.7,11.4,11.2,10.7,0.0,53,78,990.8,0.000,0.0,180,0.0,4
02.11.2019,01:50,19.7,11.4,11.2,10.7,0.0,54,78,990.7,0.000,0.0,247,0.0,4
02.11.2019,02:00,19.7,11.4,11.2,10.7,0.0,53,78,990.7,0.000,0.0,315,0.0,4
02.11.2019,02:10,19.7,11.4,11.2,10.8,0.0,53,78,990.4,0.000,0.0,135,0.0,4
02.11.2019,02:20,19.7,11.3,11.1,10.7,0.0,53,78,990.4,0.000,0.0,112,0.0,4
02.11.2019,02:30,19.7,11.3,11.1,10.7,0.0,53,78,990.1,0.000,0.0,270,0.0,4
02.11.2019,02:40,19.7,11.2,11.0,10.6,0.0,53,78,990.1,0.000,0.0,270,0.0,4
02.11.2019,02:50,19.7,11.1,10.9,10.5,0.0,53,78,989.9,0.000,0.0,180,0.0,4
02.11.2019,03:00,19.7,11.0,10.7,10.2,0.0,53,78,989.9,0.000,0.0,135,0.0,4
02.11.2019,03:10,19.7,10.9,10.7,10.2,0.0,53,78,989.6,0.000,0.0,292,0.0,4
02.11.2019,03:20,19.7,10.9,10.6,10.1,0.0,53,78,989.6,0.000,0.0,135,0.0,4
02.11.2019,03:30,19.7,10.8,10.6,10.2,0.0,53,78,989.2,0.000,0.0,135,0.0,4
02.11.2019,03:40,19.7,10.8,10.6,10.1,0.0,53,78,989.2,0.000,0.0,292,0.0,4
02.11.2019,03:50,19.7,10.8,10.6,10.3,0.0,53,78,988.9,0.000,0.0,135,0.0,4
02.11.2019,04:00,19.7,10.7,10.5,10.2,0.0,53,78,988.9,0.000,0.3,202,0.0,4
02.11.2019,04:10,19.7,10.7,10.6,10.3,0.0,53,78,988.7,0.000,0.0,315,0.0,4
02.11.2019,04:20,19.7,10.8,10.6,10.3,0.0,53,78,988.7,0.000,0.0,292,0.0,4
02.11.2019,04:30,19.7,10.8,10.7,10.4,0.0,53,78,988.7,0.000,0.5,315,0.0,4
02.11.2019,04:40,19.7,11.0,10.9,10.7,0.0,53,78,988.7,0.000,0.5,292,0.0,4
02.11.2019,04:50,19.7,11.1,11.1,11.0,0.0,53,78,988.5,0.000,0.8,315,0.0,4
02.11.2019,05:00,19.7,11.3,11.3,11.3,0.0,53,78,988.5,2.060,0.8,22,0.0,4
02.11.2019,05:10,19.7,11.5,11.5,11.5,0.0,53,77,988.4,0.000,1.6,270,2.1,4
02.11.2019,05:20,19.6,11.7,11.9,11.9,0.0,53,77,988.4,0.000,1.4,202,4.5,4
02.11.2019,05:30,19.6,11.9,12.2,12.2,0.0,53,77,988.2,0.000,1.1,315,2.3,4
02.11.2019,05:40,19.7,12.1,12.1,12.1,0.0,53,77,988.2,0.000,1.9,360,1.8,4
02.11.2019,05:50,19.7,12.1,12.0,11.9,0.0,53,77,988.2,0.000,2.1,315,6.6,4
02.11.2019,06:00,19.6,12.0,11.9,11.6,0.0,53,77,988.2,0.000,0.2,247,0.0,4
02.11.2019,06:10,19.7,11.9,11.7,11.4,0.0,53,77,988.0,0.000,0.0,67,0.0,4
02.11.2019,06:20,19.7,11.7,11.5,11.1,0.0,53,78,988.0,0.687,0.0,270,0.0,4
02.11.2019,06:30,19.7,11.6,11.4,10.9,0.0,53,78,987.9,0.000,0.0,202,0.0,4
02.11.2019,06:40,19.7,11.5,11.3,10.9,0.0,53,78,987.9,0.000,0.0,270,0.0,4
02.11.2019,06:50,19.6,11.5,11.3,10.9,0.0,53,78,987.8,0.000,0.0,292,0.0,4
02.11.2019,07:00,19.7,11.5,11.3,11.0,0.0,53,77,987.8,0.000,0.0,157,0.0,4
02.11.2019,07:10,19.6,11.5,11.3,11.0,0.0,53,77,987.8,0.000,0.0,315,0.0,4
02.11.2019,07:20,19.7,11.5,11.4,11.1,0.0,53,77,987.8,0.000,0.0,90,0.0,4
02.11.2019,07:30,19.7,11.5,11.4,11.1,0.0,53,77,987.8,0.000,0.0,247,0.0,4
02.11.2019,07:40,19.7,11.6,11.5,11.2,0.0,53,77,987.8,0.000,0.0,292,0.0,4
02.11.2019,07:50,19.6,11.6,11.4,11.1,0.0,53,77,987.7,0.000,0.0,270,0.0,4
02.11.2019,08:00,19.6,11.8,11.6,11.2,0.0,53,77,987.7,0.000,0.2,315,0.0,4
02.11.2019,08:10,19.7,11.9,11.7,11.4,0.0,53,77,987.5,0.000,0.0,112,0.0,4
02.11.2019,08:20,19.7,12.1,12.0,11.7,0.0,53,77,987.5,0.000,0.0,247,0.0,4
02.11.2019,08:30,19.7,12.3,12.2,11.9,0.0,53,77,987.5,0.000,0.0,22,0.0,4
02.11.2019,08:40,19.7,12.3,12.2,12.0,0.0,53,77,987.5,0.000,0.3,135,0.0,4
02.11.2019,08:50,19.7,12.6,12.5,12.4,0.0,53,77,987.6,0.000,0.0,270,0.0,4
02.11.2019,09:00,19.7,12.8,12.8,12.8,0.0,53,77,987.6,0.000,0.0,157,0.0,4
02.11.2019,09:10,19.7,12.9,12.9,12.9,0.0,53,77,987.9,0.000,0.2,270,0.0,4
02.11.2019,09:20,19.7,13.2,13.2,13.2,0.0,53,77,987.9,0.000,0.2,22,0.0,4
02.11.2019,09:30,19.7,13.8,14.0,14.0,0.0,53,77,987.6,0.000,0.3,315,0.0,4
02.11.2019,09:40,19.7,14.6,15.4,15.4,0.0,53,77,987.6,0.000,0.5,247,0.0,4
02.11.2019,09:50,19.7,15.4,16.8,16.8,0.0,53,77,987.6,0.000,1.6,315,3.9,4
02.11.2019,10:00,19.8,16.3,19.2,19.2,0.0,53,76,987.6,0.000,1.9,247,2.6,4
02.11.2019,10:10,19.8,16.9,20.6,20.6,0.0,53,74,989.2,0.000,3.7,292,4.5,4
02.11.2019,10:20,19.8,16.9,19.4,19.4,0.0,53,73,989.2,0.000,2.3,225,14.3,4
02.11.2019,10:30,19.8,17.0,19.1,19.1,0.0,53,72,987.8,0.000,3.5,202,7.9,4
02.11.2019,10:40,19.8,17.1,18.8,18.8,0.0,53,72,987.8,0.000,2.4,315,3.4,4
02.11.2019,10:50,19.8,17.7,20.3,20.3,0.0,53,72,987.4,0.000,2.7,90,2.4,4
02.11.2019,11:00,19.8,18.0,20.4,20.4,0.0,53,71,987.4,0.000,2.6,45,5.8,4
02.11.2019,11:10,19.8,17.7,18.6,18.6,0.0,54,71,987.9,0.000,2.7,22,2.3,4
02.11.2019,11:20,19.8,17.8,18.1,18.1,0.0,54,70,987.9,0.000,2.7,292,5.8,4
02.11.2019,11:30,19.9,18.0,18.4,18.4,0.0,54,70,987.6,0.000,2.9,315,3.1,4
02.11.2019,11:40,19.9,18.7,20.1,20.1,0.0,53,69,987.6,0.000,2.4,315,2.1,4
02.11.2019,11:50,19.9,19.1,23.2,23.2,0.0,53,68,987.9,0.000,2.9,315,5.0,4
02.11.2019,12:00,19.9,18.9,21.6,21.6,0.0,53,67,987.9,0.000,4.2,180,3.2,4
02.11.2019,12:10,19.9,18.7,19.5,19.5,0.0,53,67,987.7,0.000,3.5,202,3.1,4
02.11.2019,12:20,19.9,18.4,18.6,18.6,0.0,54,66,987.7,0.000,4.2,247,4.0,4
02.11.2019,12:30,20.0,18.3,18.2,18.1,0.0,54,66,987.5,0.000,4.0,270,3.5,4
02.11.2019,12:40,20.0,18.3,18.2,18.1,0.0,54,67,987.5,0.000,4.7,315,9.2,4
02.11.2019,12:50,20.0,18.6,18.7,18.7,0.0,54,66,987.1,0.000,3.1,315,3.1,4
02.11.2019,13:00,20.0,18.7,18.7,18.6,0.0,54,65,987.1,0.000,5.8,247,15.0,4
02.11.2019,13:10,20.0,19.0,19.2,19.2,0.0,54,64,987.6,0.000,4.7,247,19.5,4
02.11.2019,13:20,20.0,18.8,18.8,18.8,0.0,54,64,987.6,0.000,3.9,202,9.5,4
02.11.2019,13:30,20.0,18.5,18.4,18.3,0.0,54,65,987.2,0.000,6.0,292,6.3,4
02.11.2019,13:40,20.0,18.6,18.5,18.2,0.0,54,65,987.2,0.000,3.5,247,3.4,4
02.11.2019,13:50,20.0,18.5,18.3,17.9,0.0,54,65,986.9,0.000,3.7,270,0.0,4
02.11.2019,14:00,20.1,18.8,18.5,17.9,0.0,54,63,986.9,0.000,2.7,337,8.4,4
02.11.2019,14:10,20.1,18.9,18.9,18.8,0.0,54,64,986.9,0.000,2.6,292,2.3,4
02.11.2019,14:20,20.1,18.7,18.7,18.6,0.0,54,64,986.9,0.000,2.7,315,4.7,4
02.11.2019,14:30,20.1,18.6,18.6,18.5,0.0,54,64,986.4,0.000,2.9,112,6.8,4
02.11.2019,14:40,20.2,18.5,18.5,18.5,0.0,54,64,986.4,0.000,3.1,135,2.1,4
02.11.2019,14:50,20.2,18.3,18.3,18.2,0.0,54,64,986.4,0.000,2.6,112,6.0,4
02.11.2019,15:00,20.2,17.9,17.9,17.8,0.0,54,64,986.4,0.000,4.0,112,2.7,4
02.11.2019,15:10,20.2,17.9,17.9,17.8,0.0,54,65,986.4,0.000,1.9,315,6.1,4
02.11.2019,15:20,20.2,17.7,17.7,17.6,0.0,54,65,986.4,0.000,3.1,247,3.4,4
02.11.2019,15:30,20.2,17.7,17.7,17.6,0.0,54,65,986.1,0.000,2.1,247,2.7,4
02.11.2019,15:40,20.2,17.6,17.6,17.5,0.0,54,65,986.1,0.000,2.3,270,3.2,4
02.11.2019,15:50,20.2,17.4,17.3,17.1,0.0,54,66,986.1,0.000,1.3,45,0.0,4
02.11.2019,16:00,20.2,17.1,17.0,16.7,0.0,54,67,986.1,0.000,1.0,337,1.9,4
02.11.2019,16:10,20.3,17.0,16.8,16.4,0.0,54,67,986.1,0.000,1.6,67,4.0,4
02.11.2019,16:20,20.2,16.7,16.5,16.2,0.0,54,68,986.1,0.000,1.4,225,2.9,4
02.11.2019,16:30,20.3,16.5,16.3,15.9,0.0,54,68,986.2,0.000,0.5,337,0.0,4
02.11.2019,16:40,20.3,16.3,16.1,15.7,0.0,54,68,986.2,0.000,0.6,315,1.8,4
02.11.2019,16:50,20.3,16.2,16.0,15.7,0.0,54,68,986.4,0.000,2.1,157,0.0,4
02.11.2019,17:00,20.2,16.1,16.0,15.7,0.0,54,69,986.4,0.000,2.1,270,3.1,4
02.11.2019,17:10,20.3,16.0,15.9,15.6,0.0,54,69,986.2,0.000,2.4,225,3.2,4
02.11.2019,17:20,20.3,15.8,15.7,15.5,0.0,54,69,986.2,0.000,2.3,247,4.0,4
02.11.2019,17:30,20.2,15.7,15.6,15.3,0.0,54,69,986.3,0.000,2.4,315,2.3,4
02.11.2019,17:40,20.2,15.5,15.2,14.5,0.0,54,70,986.3,0.000,1.6,315,1.9,4
02.11.2019,17:50,20.2,15.3,14.9,14.2,0.0,54,70,986.2,0.000,0.5,337,0.0,4
02.11.2019,18:00,20.4,15.0,14.6,13.7,0.0,54,71,986.2,0.000,0.2,270,0.0,4
02.11.2019,18:10,20.4,14.5,14.0,12.9,0.0,54,72,986.1,0.000,0.0,135,0.0,4
02.11.2019,18:20,20.4,14.1,13.4,12.0,0.0,54,73,986.1,0.000,0.0,135,0.0,4
02.11.2019,18:30,20.4,14.0,13.2,11.6,0.0,54,73,986.4,0.000,0.0,315,0.0,4
02.11.2019,18:40,20.4,13.9,13.2,11.9,0.0,54,74,986.4,0.000,0.2,270,1.9,4
02.11.2019,18:50,20.4,13.7,13.1,11.8,0.0,54,74,986.5,0.000,0.2,180,0.0,4
02.11.2019,19:00,20.4,13.5,12.8,11.5,0.0,54,73,986.5,0.000,0.0,135,0.0,4
02.11.2019,19:10,20.4,13.2,12.6,11.3,0.0,54,74,986.4,0.000,0.2,270,0.0,4
02.11.2019,19:20,20.4,13.1,12.6,11.5,0.0,54,74,986.4,0.000,0.2,135,0.0,4
02.11.2019,19:30,20.4,12.9,12.3,11.1,0.0,54,75,985.9,0.000,0.0,135,0.0,4
02.11.2019,19:40,20.4,12.7,12.1,10.8,0.0,54,75,985.9,0.000,0.0,225,0.0,4
02.11.2019,19:50,20.4,12.6,12.1,11.2,0.0,54,75,985.9,0.000,0.8,270,2.3,4
02.11.2019,20:00,20.4,12.5,12.2,11.6,0.0,54,75,985.9,0.000,1.3,270,2.6,4
02.11.2019,20:10,20.4,12.5,12.3,11.8,0.0,54,74,985.6,0.000,1.4,270,2.4,4
02.11.2019,20:20,20.4,12.5,12.4,12.1,0.0,54,74,985.6,0.000,1.4,315,1.9,4
02.11.2019,20:30,20.4,12.4,12.3,12.2,0.0,54,74,985.4,0.000,1.3,247,0.0,4
02.11.2019,20:40,20.5,12.4,12.3,12.0,0.0,54,74,985.4,0.000,1.0,157,0.0,4
02.11.2019,20:50,20.5,12.5,12.3,12.0,0.0,54,74,985.5,0.000,0.6,315,1.8,4
02.11.2019,21:00,20.5,12.3,12.2,11.9,0.0,54,74,985.5,0.000,0.5,270,1.6,4
02.11.2019,21:10,20.6,12.4,12.2,11.9,0.0,54,74,985.6,0.000,0.5,67,0.0,4
02.11.2019,21:20,20.6,12.5,12.4,12.1,0.0,54,74,985.6,0.000,0.5,292,1.9,4
02.11.2019,21:30,20.6,12.6,12.6,12.6,0.0,54,74,985.8,0.000,0.8,270,0.0,4
02.11.2019,21:40,20.6,12.8,12.9,12.9,0.0,54,74,985.8,0.000,0.6,112,1.8,4
02.11.2019,21:50,20.6,12.9,13.2,13.2,0.0,54,74,985.5,0.000,1.0,202,1.8,4
02.11.2019,22:00,20.6,13.1,13.4,13.4,0.0,54,74,985.5,0.000,1.1,315,1.9,4
02.11.2019,22:10,20.6,13.1,13.3,13.3,0.0,54,75,985.1,0.000,0.8,67,0.0,4
02.11.2019,22:20,20.6,13.0,13.0,13.0,0.0,54,75,985.1,0.000,1.4,247,3.9,4
02.11.2019,22:30,20.6,12.9,12.9,12.9,0.0,54,75,984.9,0.000,1.1,315,0.0,4
02.11.2019,22:40,20.6,12.8,12.7,12.6,0.0,54,75,984.9,0.000,0.3,337,0.0,4
02.11.2019,22:50,20.6,12.7,12.6,12.5,0.0,54,76,984.6,0.000,0.5,315,0.0,4
02.11.2019,23:00,20.6,12.8,12.8,12.7,0.0,54,76,984.6,0.000,0.5,337,0.0,4
02.11.2019,23:10,20.6,12.9,12.9,12.8,0.0,54,76,984.2,0.000,0.2,270,0.0,4
02.11.2019,23:20,20.6,12.9,12.9,12.8,0.0,54,76,984.2,0.000,1.8,315,1.6,4
02.11.2019,23:30,20.6,12.8,12.8,12.8,0.0,54,76,984.1,0.000,1.0,337,0.0,4
02.11.2019,23:40,20.6,12.9,12.9,12.8,0.0,54,76,984.1,0.000,0.0,292,0.0,4
02.11.2019,23:50,20.6,12.9,12.9,12.8,0.0,54,76,984.0,0.000,0.3,270,2.3,4
03.11.2019,00:00,20.6,13.1,13.1,13.0,0.0,54,76,984.0,0.000,1.3,270,2.1,4
03.11.2019,00:01,20.6,13.1,13.1,13.0,0.0,54,76,984.0,0.000,1.3,270,2.1,4
03.11.2019,00:10,20.6,13.1,13.2,13.2,0.0,54,76,984.0,0.000,0.8,90,2.3,4
03.11.2019,00:20,20.6,13.2,13.3,13.3,0.0,54,76,984.0,0.000,1.0,315,1.9,4
03.11.2019,00:30,20.6,13.2,13.3,13.3,0.0,54,76,984.1,0.000,1.8,22,3.2,4
03.11.2019,00:40,20.6,13.3,13.4,13.4,0.0,54,75,984.1,0.000,1.4,247,8.2,4
03.11.2019,00:50,20.6,13.3,13.3,13.3,0.0,54,75,983.6,0.000,1.6,292,2.1,4
03.11.2019,01:00,20.6,13.3,13.3,13.3,0.0,54,75,983.6,0.000,1.8,292,2.1,4
03.11.2019,01:10,20.6,13.2,13.2,13.2,0.0,54,75,983.9,0.000,1.0,67,0.0,4
03.11.2019,01:20,20.6,13.2,13.2,13.2,0.0,54,75,983.9,0.000,1.4,315,2.3,4
03.11.2019,01:30,20.6,13.2,13.2,13.2,0.0,54,76,983.9,0.000,1.8,315,1.6,4
03.11.2019,01:40,20.6,13.2,13.1,12.9,0.0,54,76,983.9,0.000,1.3,270,2.1,4
03.11.2019,01:50,20.6,13.1,12.9,12.4,0.0,54,76,983.6,0.000,1.1,337,0.0,4
03.11.2019,02:00,20.6,13.1,12.8,12.1,0.0,54,76,983.6,0.000,0.3,315,0.0,4
03.11.2019,02:10,20.6,13.0,12.6,11.8,0.0,54,76,983.7,0.000,1.1,270,2.4,4
03.11.2019,02:20,20.6,12.8,12.3,11.4,0.0,54,76,983.7,0.000,0.6,135,0.0,4
03.11.2019,02:30,20.6,12.6,12.1,11.1,0.0,54,77,983.9,0.000,0.2,225,0.0,4
03.11.2019,02:40,20.6,12.5,12.0,10.9,0.0,54,77,983.9,0.000,0.2,225,0.0,4
03.11.2019,02:50,20.6,12.4,11.9,10.8,0.0,54,77,983.6,0.000,0.2,112,0.0,4
03.11.2019,03:00,20.6,12.3,11.8,10.7,0.0,54,77,983.6,0.000,0.3,247,1.8,4
03.11.2019,03:10,20.6,12.3,11.8,10.7,0.0,54,77,983.4,0.687,0.8,247,3.2,4
03.11.2019,03:20,20.6,12.1,11.6,10.6,0.0,54,77,983.4,0.000,0.6,270,0.0,4
03.11.2019,03:30,20.6,12.0,11.5,10.5,0.0,54,77,983.1,0.000,0.0,157,0.0,4
03.11.2019,03:40,20.6,11.9,11.4,10.5,0.0,54,77,983.1,0.000,0.0,67,0.0,4
03.11.2019,03:50,20.6,11.9,11.4,10.4,0.0,54,78,982.9,0.000,0.0,90,0.0,4
03.11.2019,04:00,20.6,11.8,11.3,10.4,0.0,54,78,982.9,0.000,0.0,112,0.0,4
03.11.2019,04:10,20.6,11.7,11.2,10.3,0.0,54,78,982.3,0.000,0.0,135,0.0,4
03.11.2019,04:20,20.6,11.6,11.2,10.3,0.0,54,78,982.3,0.000,0.0,135,0.0,4
03.11.2019,04:30,20.6,11.6,11.2,10.3,0.0,54,78,981.8,0.000,0.0,180,0.0,4
03.11.2019,04:40,20.6,11.5,11.1,10.3,0.0,54,78,981.8,0.000,0.3,112,0.0,4
03.11.2019,04:50,20.6,11.4,11.0,10.2,0.0,54,78,981.5,0.000,0.3,315,3.4,4
03.11.2019,05:00,20.6,11.3,10.9,10.2,0.0,54,78,981.5,0.000,0.8,270,0.0,4